Starlink 34050

operational
NORAD ID: 64331 Int'l Des: 2025-124 Owner: SPXS Country: US Constellation: starlink
LEOCIRCULAR

关于 Starlink 34050

正在加载描述...

实时位置

正在加载3D地球...

即将过境

高度历史

Altitude vs Time

uPlot chart will show altitude changes over time

两行轨道根数

1 64331U 25124Q 25353.02683980 .00020482 00000-0 75134-3 0 9994
2 64331 42.9991 217.2972 0000839 286.3179 73.7580 15.27598074 30505
Epoch: Dec 19, 2025 • Age: 22 hours

当前状态

高度 483.6 km
速度 7.63 km/s
星下点 -7.18°S, 137.12°E
发射日期 Jun 10, 2025
运行时间 0.5 years
类型 internet

技术详情

分类 Payload
质量 575.00 kg
干质量 530.00 kg
总质量 575.00 kg
长度 0.30 m
直径 4.10 m
跨度 29.00 m
形状 Box + pan
制造商 SPXS
平台类型 Starlink V2MO
阶段状态 In Orbit
所有者/国家 SPXS/US

大型星座

Loading constellations...